GW4332 Weather Reports


time (UTC)temp
F
wind
direction
speed
knots
gust
knots
rain 1hr
in
rain 24hr
in
rain mn
in
humidity
%
barometer
mb
20260904065030 69 212 14.8 24.3 0.00 0.00 0.00 86 1008.5
20260904064030 69 202 13.0 21.7 0.00 0.00 0.00 86 1008.5
20260904063030 69 223 13.9 27.8 0.00 0.00 0.00 86 1008.6
20260904062030 68 218 14.8 28.7 0.00 0.00 0.00 86 1008.7
20260904061030 68 210 14.8 26.1 0.00 0.00 0.00 87 1008.7
20260904060030 68 208 13.0 24.3 0.00 0.00 0.00 87 1009.0
20260904055030 68 217 13.0 23.5 0.00 0.00 0.00 87 1008.9
20260904054029 68 207 13.0 26.1 0.00 0.00 0.00 87 1009.0
20260904053033 68 212 14.8 26.1 0.00 0.00 0.00 87 1009.1
20260904052030 68 206 12.2 20.9 0.00 0.00 0.00 88 1009.4
20260904051030 68 200 10.4 18.2 0.00 0.00 0.00 88 1009.4
20260904050030 68 209 12.2 21.7 0.00 0.00 0.00 88 1009.5
20260904045030 68 208 11.3 20.9 0.00 0.00 0.00 89 1009.8
20260904044030 68 205 11.3 20.9 0.00 0.00 0.00 89 1009.9
20260904043030 68 206 8.7 18.2 0.00 0.00 0.00 89 1010.1
20260904042030 68 209 8.7 16.5 0.00 0.00 0.00 89 1010.1
20260904041029 68 209 9.6 16.5 0.00 0.00 0.00 89 1010.3
20260904040030 68 211 9.6 20.9 0.00 0.00 0.00 90 1010.5
20260904035030 68 210 11.3 20.0 0.00 0.00 0.00 90 1010.5
20260904034030 67 213 10.4 16.5 0.00 0.00 0.00 90 1010.7
20260904033030 67 210 9.6 16.5 0.00 0.00 0.00 91 1010.7
20260904032030 67 199 7.8 15.6 0.00 0.00 0.00 91 1010.7
20260904031029 67 213 7.8 14.8 0.00 0.00 0.00 91 1010.9
20260904030030 67 196 7.8 13.9 0.00 0.00 0.00 91 1011.1
20260904025030 67 195 7.0 14.8 0.00 0.00 0.00 91 1011.1
20260904024030 67 190 7.0 12.2 0.00 0.00 0.00 91 1011.2
20260904023030 68 205 7.0 13.0 0.00 0.00 0.00 91 1011.3
20260904022030 68 197 6.1 13.0 0.00 0.00 0.00 90 1011.4
20260904021030 68 202 7.8 13.0 0.00 0.00 0.00 90 1011.6
20260904020030 68 177 6.1 13.0 0.00 0.00 0.00 90 1011.8
20260904015030 68 204 8.7 14.8 0.00 0.00 0.00 90 1011.9
20260904014030 68 202 9.6 17.4 0.00 0.00 0.00 90 1011.9
20260904013030 68 211 9.6 15.6 0.00 0.00 0.00 90 1012.1
20260904012030 68 200 9.6 17.4 0.00 0.00 0.00 90 1012.2
20260904011030 68 210 11.3 19.1 0.00 0.00 0.00 90 1012.4
20260904010031 68 205 9.6 18.2 0.00 0.00 0.00 90 1012.5
20260904005030 68 207 10.4 16.5 0.00 0.00 0.00 90 1012.7
20260904004029 68 210 9.6 16.5 0.00 0.00 0.00 90 1012.7
20260904003030 68 197 9.6 16.5 0.00 0.00 0.00 90 1012.8
20260904002030 68 203 8.7 13.9 0.00 0.00 0.00 90 1012.8
20260904001030 68 202 9.6 15.6 0.00 0.00 0.00 90 1012.9
20260904000030 68 199 7.8 15.6 0.00 0.00 0.00 91 1012.9
20260903235029 68 201 7.8 14.8 0.00 0.00 0.00 91 1012.9
20260903234030 68 200 8.7 17.4 0.00 0.00 0.00 91 1013.1
20260903233030 68 207 7.8 15.6 0.00 0.00 0.00 91 1013.2
20260903232030 67 191 7.0 12.2 0.00 0.00 0.00 91 1013.4
20260903231029 67 194 7.8 14.8 0.00 0.00 0.00 91 1013.5
20260903230030 67 202 7.0 14.8 0.00 0.00 0.00 91 1013.6
20260903225030 67 204 7.8 15.6 0.00 0.00 0.00 91 1013.9
20260903224030 67 201 7.8 13.0 0.00 0.00 0.00 91 1013.9
20260903223030 67 188 6.1 13.0 0.00 0.00 0.00 91 1014.0
20260903222029 67 202 7.0 13.0 0.00 0.00 0.00 91 1014.3
20260903221030 67 200 6.1 13.0 0.00 0.00 0.00 91 1014.3
20260903220030 67 196 6.1 11.3 0.00 0.00 0.07 91 1014.6
20260903215029 67 208 6.1 12.2 0.00 0.00 0.07 91 1014.6
20260903214029 67 200 6.1 12.2 0.00 0.00 0.07 91 1014.7
20260903213030 67 200 5.2 11.3 0.00 0.00 0.07 90 1014.8
20260903212030 67 193 6.1 11.3 0.00 0.00 0.07 90 1014.8
20260903211030 67 210 7.8 14.8 0.00 0.00 0.06 90 1014.9
20260903210030 67 201 5.2 12.2 0.00 0.00 0.06 89 1015.0
20260903205030 67 187 5.2 9.6 0.00 0.00 0.06 89 1015.0
20260903204029 67 190 3.5 9.6 0.00 0.00 0.06 89 1015.2
20260903203030 67 185 5.2 9.6 0.00 0.00 0.06 88 1015.3
20260903202030 67 187 3.5 7.0 0.00 0.00 0.06 88 1015.2
20260903201030 67 195 3.5 8.7 0.00 0.00 0.06 88 1015.3
20260903200029 67 190 4.3 9.6 0.00 0.00 0.06 89 1015.3
20260903195030 67 217 4.3 9.6 0.00 0.00 0.06 89 1015.4
20260903194030 68 215 6.1 11.3 0.00 0.00 0.06 88 1015.6
20260903193030 68 230 7.8 13.0 0.00 0.00 0.06 88 1015.6
20260903192030 68 225 10.4 15.6 0.00 0.00 0.06 88 1015.7
20260903191029 68 232 9.6 13.9 0.00 0.00 0.06 88 1015.6
20260903190030 68 226 10.4 15.6 0.00 0.00 0.06 88 1015.8
20260903185030 68 226 9.6 13.0 0.00 0.00 0.06 87 1015.6
20260903184029 68 230 8.7 13.0 0.00 0.00 0.06 87 1015.7
20260903183030 68 235 10.4 13.9 0.00 0.00 0.06 86 1015.8
20260903182030 69 241 13.9 18.2 0.00 0.00 0.06 86 1015.8
20260903181030 68 225 11.3 16.5 0.00 0.00 0.06 86 1015.8
20260903180030 68 228 11.3 14.8 0.00 0.00 0.06 86 1015.7
20260903175030 68 239 11.3 14.8 0.00 0.00 0.06 85 1015.6
20260903174030 69 236 11.3 13.9 0.00 0.00 0.06 84 1015.9
20260903173030 69 239 10.4 13.9 0.00 0.00 0.06 84 1015.4
20260903172030 69 238 10.4 13.9 0.00 0.00 0.06 84 1015.2
20260903171030 69 234 11.3 13.9 0.00 0.00 0.06 84 1015.5
20260903170030 68 230 9.6 13.0 0.00 0.00 0.06 85 1015.4
20260903165030 68 240 10.4 13.0 0.00 0.00 0.06 85 1015.3
20260903164030 69 240 11.3 14.8 0.00 0.00 0.06 84 1015.5
20260903163029 69 246 13.0 17.4 0.00 0.00 0.06 83 1015.4
20260903162030 69 245 13.9 18.2 0.00 0.00 0.06 82 1015.6
20260903161030 69 246 13.9 18.2 0.00 0.00 0.06 82 1015.5
20260903160030 69 240 11.3 15.6 0.00 0.00 0.06 83 1015.5
20260903155030 69 236 11.3 17.4 0.00 0.00 0.06 83 1015.5
20260903154029 69 237 13.0 16.5 0.00 0.00 0.06 82 1015.6
20260903153030 69 237 13.9 19.1 0.00 0.00 0.06 81 1015.5
20260903152030 69 228 13.9 20.9 0.00 0.00 0.06 82 1015.6
20260903151030 69 229 15.6 20.9 0.00 0.00 0.06 82 1015.5
20260903150030 69 236 13.9 20.9 0.00 0.00 0.06 83 1015.4
20260903145030 69 243 14.8 22.6 0.00 0.00 0.06 82 1015.2
20260903144030 69 244 14.8 20.0 0.00 0.00 0.06 83 1015.3
20260903143030 69 257 16.5 21.7 0.00 0.00 0.06 85 1015.4
20260903142030 69 249 20.9 24.3 0.00 0.00 0.06 83 1015.3
20260903141030 68 249 14.8 21.7 0.00 0.00 0.06 84 1015.2
20260903140029 69 239 15.6 20.9 0.00 0.00 0.06 83 1015.4
20260903135030 69 247 13.9 20.0 0.00 0.00 0.06 83 1015.5
20260903134030 69 258 16.5 21.7 0.00 0.00 0.06 82 1015.3
20260903133030 69 254 20.9 27.8 0.00 0.00 0.06 81 1015.1
20260903132029 69 263 20.9 27.8 0.00 0.00 0.06 81 1015.1
20260903131030 69 251 20.9 26.1 0.00 0.00 0.06 82 1015.2
20260903130030 69 258 20.9 26.9 0.00 0.00 0.06 82 1015.1
20260903125030 69 252 20.9 26.9 0.00 0.00 0.06 84 1015.1
20260903124030 69 255 20.0 26.1 0.00 0.00 0.06 83 1014.8
20260903123030 68 251 16.5 21.7 0.00 0.00 0.06 84 1014.9
20260903122030 68 239 17.4 24.3 0.00 0.00 0.06 84 1014.9
20260903121030 68 238 16.5 22.6 0.00 0.00 0.06 84 1015.0
20260903120029 68 246 17.4 25.2 0.00 0.00 0.06 84 1014.8
20260903115030 68 253 19.1 23.5 0.00 0.00 0.06 85 1014.8
20260903114030 68 238 19.1 25.2 0.00 0.00 0.06 85 1014.6
20260903113030 68 247 19.1 26.9 0.00 0.00 0.06 85 1014.4
20260903112029 68 247 18.2 26.9 0.00 0.00 0.06 84 1014.4
20260903111030 68 254 20.0 26.9 0.00 0.00 0.06 84 1014.4
20260903110030 68 237 20.0 26.9 0.00 0.00 0.06 85 1014.4
20260903105030 68 256 20.9 29.5 0.00 0.00 0.06 85 1014.3
20260903104029 68 250 21.7 29.5 0.00 0.00 0.06 84 1014.0
20260903103030 68 240 16.5 22.6 0.00 0.00 0.06 85 1014.3
20260903102030 68 244 17.4 23.5 0.00 0.00 0.06 85 1014.3
20260903101029 68 225 16.5 23.5 0.00 0.00 0.06 86 1014.4
20260903100030 68 241 15.6 20.9 0.00 0.00 0.06 86 1014.4
20260903095030 68 236 14.8 20.0 0.00 0.00 0.06 87 1014.5
20260903094030 67 239 16.5 22.6 0.00 0.00 0.06 89 1014.3
20260903093030 67 247 16.5 20.9 0.00 0.00 0.06 90 1014.3
20260903092029 67 214 14.8 21.7 0.00 0.00 0.06 91 1014.2
20260903091030 67 216 13.0 20.9 0.00 0.00 0.06 92 1014.4
20260903090030 66 216 12.2 18.2 0.00 0.00 0.06 93 1014.4
20260903085029 66 219 11.3 20.0 0.00 0.00 0.06 93 1014.3
20260903084030 66 216 8.7 13.9 0.00 0.00 0.06 94 1014.1
20260903083030 66 210 10.4 18.2 0.00 0.00 0.06 94 1014.0
20260903082030 66 227 12.2 18.2 0.00 0.00 0.06 94 1014.1
20260903081030 66 221 12.2 18.2 0.00 0.00 0.06 94 1014.1
20260903080030 65 229 13.0 19.1 0.00 0.00 0.06 94 1014.1
20260903075030 65 228 13.0 20.0 0.00 0.00 0.06 94 1014.0
20260903074029 65 235 15.6 21.7 0.00 0.00 0.06 94 1013.8
20260903073030 65 235 14.8 24.3 0.00 0.00 0.06 94 1013.9
20260903072030 65 216 9.6 16.5 0.00 0.00 0.06 94 1014.1
20260903071030 65 198 7.8 13.9 0.00 0.00 0.04 94 1014.2
20260903070030 64 197 7.0 12.2 0.00 0.00 0.03 93 1014.1